M0ZPG Weather Reports


time (UTC)temp
F
wind
direction
speed
knots
gust
knots
rain 1hr
in
rain 24hr
in
rain mn
in
humidity
%
barometer
mb
20260503214504 58 179 0.9 2.6 0.00 0.01 0.01 82 1010.0
20260503213605 58 176 0.0 2.6 0.00 0.01 0.01 81 1010.0
20260503212705 58 175 0.0 1.7 0.00 0.01 0.01 80 1009.9
20260503211805 59 175 0.0 1.7 0.00 0.01 0.01 79 1009.9
20260503210904 59 175 0.0 2.6 0.00 0.01 0.01 78 1009.7
20260503210006 60 174 0.0 2.6 0.00 0.01 0.01 77 1009.6
20260503205405 60 173 0.0 2.6 0.00 0.01 0.01 77 1009.5
20260503204503 60 170 0.0 1.7 0.00 0.01 0.01 76 1009.5
20260503203817 60 169 0.0 1.7 0.00 0.01 0.01 75 1009.5
20260503202703 60 187 0.9 3.5 0.00 0.01 0.01 74 1009.3
20260503201806 61 238 0.0 2.6 0.00 0.01 0.01 72 1009.2
20260503200905 61 238 0.0 1.7 0.00 0.01 0.01 71 1009.1
20260503200005 61 238 0.0 0.9 0.00 0.01 0.01 71 1008.9
20260503195403 61 218 0.0 0.9 0.00 0.01 0.01 71 1008.9
20260503194504 62 211 0.0 1.7 0.00 0.01 0.01 70 1008.8
20260503193608 62 211 0.0 2.6 0.00 0.01 0.01 70 1008.8
20260503192705 62 211 0.0 0.9 0.00 0.01 0.01 69 1008.8
20260503191805 62 211 0.0 0.9 0.00 0.01 0.01 69 1008.7
20260503190908 63 211 0.0 2.6 0.00 0.01 0.01 69 1008.5
20260503190003 63 224 0.0 2.6 0.00 0.01 0.01 69 1008.4
20260503185619 63 226 0.0 2.6 0.00 0.01 0.01 69 1008.4
20260503184716 63 226 0.0 2.6 0.00 0.01 0.01 68 1008.4
20260503183605 63 215 0.0 1.7 0.00 0.01 0.01 68 1008.4
20260503182915 64 201 0.0 0.9 0.00 0.01 0.01 67 1008.1
20260503181805 64 201 0.0 1.7 0.00 0.01 0.01 65 1008.1
20260503180905 64 200 0.0 0.9 0.00 0.01 0.01 65 1008.1
20260503180217 64 200 0.0 1.7 0.00 0.01 0.01 65 1008.1
20260503175403 65 197 0.0 1.7 0.00 0.01 0.01 64 1008.1
20260503174505 65 197 0.0 1.7 0.00 0.01 0.01 65 1008.1
20260503173814 65 198 0.0 1.7 0.00 0.01 0.01 64 1008.1
20260503172705 65 205 0.9 2.6 0.00 0.01 0.01 64 1008.1
20260503171803 65 214 0.9 1.7 0.00 0.01 0.01 65 1008.1
20260503170906 66 263 0.0 3.5 0.00 0.01 0.01 65 1008.1
20260503150903 69 270 0.9 3.5 0.00 0.02 0.01 61 1008.2
20260503150214 68 286 0.9 3.5 0.00 0.02 0.01 62 1008.1
20260503131113 68 231 1.7 7.8 0.00 0.02 0.01 63 1008.7
20260503110217 64 192 0.9 5.2 0.00 0.02 0.01 70 1008.8
20260503080903 61 248 0.9 3.5 0.00 0.02 0.01 76 1008.8
20260503072703 58 244 0.9 5.2 0.00 0.02 0.01 82 1008.8
20260503071805 57 231 0.0 1.7 0.00 0.02 0.01 83 1008.8
20260503070905 57 229 0.0 0.9 0.00 0.02 0.01 84 1008.8
20260503054503 55 213 0.0 2.6 0.00 0.02 0.01 90 1008.6
20260503053605 55 210 0.0 1.7 0.00 0.02 0.01 90 1008.6
20260503052703 55 211 0.0 1.7 0.00 0.02 0.01 90 1008.6
20260503051804 55 211 0.0 2.6 0.00 0.02 0.01 90 1008.5
20260503050903 55 210 0.0 1.7 0.00 0.02 0.01 90 1008.3
20260503050216 55 210 0.0 0.9 0.00 0.02 0.01 90 1008.3
20260503045405 55 210 0.0 0.9 0.00 0.02 0.01 90 1008.2
20260503044505 55 0 0.0 0.0 0.00 0.02 0.01 89 1008.1
20260503043603 55 0 0.0 0.0 0.00 0.02 0.01 89 1008.2
20260503042703 55 210 0.0 0.9 0.00 0.02 0.01 89 1008.2
20260503041803 55 210 0.0 0.9 0.00 0.02 0.01 89 1008.2
20260503040904 55 210 0.0 1.7 0.00 0.02 0.01 88 1008.2
20260503040003 56 210 0.0 0.9 0.00 0.02 0.01 88 1008.1
20260503035613 56 0 0.0 0.0 0.00 0.02 0.01 88 1008.2
20260503034505 56 210 0.0 0.9 0.00 0.02 0.01 88 1008.2
20260503033603 56 210 0.0 0.9 0.00 0.02 0.01 88 1008.3
20260503032703 56 210 0.0 0.9 0.00 0.02 0.01 88 1008.2
20260503031805 56 210 0.0 1.7 0.00 0.02 0.01 88 1008.1
20260503030905 56 210 0.0 0.9 0.00 0.02 0.01 88 1008.2
20260503030005 56 210 0.0 0.9 0.00 0.02 0.01 88 1008.2
20260503025405 56 210 0.0 1.7 0.00 0.02 0.01 88 1008.3
20260503024503 56 210 0.0 1.7 0.00 0.02 0.01 88 1008.2
20260503023813 56 209 0.0 0.9 0.00 0.02 0.01 88 1008.4
20260503022915 56 209 0.0 1.7 0.00 0.02 0.01 88 1008.4
20260503022013 56 209 0.0 1.7 0.00 0.02 0.01 88 1008.4
20260503020905 56 209 0.0 1.7 0.00 0.02 0.01 88 1008.5
20260503020003 56 209 0.0 1.7 0.00 0.02 0.01 88 1008.6
20260503015404 56 208 0.0 1.7 0.00 0.02 0.01 88 1008.7
20260503014505 56 199 0.0 1.7 0.00 0.02 0.01 88 1008.8
20260503013603 56 198 0.0 1.7 0.00 0.02 0.01 88 1008.8
20260503012706 56 198 0.0 0.9 0.00 0.02 0.01 88 1008.9
20260503012013 56 198 0.0 0.9 0.00 0.02 0.01 88 1009.0
20260503010903 56 198 0.0 0.9 0.00 0.02 0.01 88 1009.1
20260503010005 56 202 0.0 1.7 0.00 0.02 0.01 88 1009.1
20260503005615 56 222 0.0 1.7 0.00 0.02 0.01 88 1009.2
20260503004504 57 250 0.0 3.5 0.00 0.02 0.01 88 1009.3
20260503003820 57 249 0.0 3.5 0.00 0.02 0.01 88 1009.2
20260503002704 57 232 0.0 3.5 0.00 0.02 0.01 88 1009.3
20260503001806 57 205 0.0 1.7 0.00 0.02 0.01 88 1009.5
20260503001116 57 208 0.0 2.6 0.01 0.02 0.01 88 1009.5
20260503000006 57 200 0.9 2.6 0.01 0.02 0.01 88 1009.5
20260502235405 57 215 0.9 3.5 0.01 0.02 0.01 87 1009.5
20260502234508 57 180 0.9 3.5 0.01 0.02 0.01 88 1009.6
20260502233815 57 173 0.9 4.3 0.01 0.02 0.01 88 1009.7
20260502232703 57 199 0.9 3.5 0.01 0.02 0.01 87 1009.9
20260502231803 58 231 0.9 2.6 0.01 0.02 0.01 87 1009.9
20260502230908 58 230 0.0 2.6 0.00 0.01 0.00 88 1009.8
20260502230005 58 262 0.9 5.2 0.00 0.01 0.00 88 1009.9
20260502225405 58 260 0.0 2.6 0.00 0.01 0.01 88 1009.8
20260502224506 58 150 0.0 2.6 0.00 0.01 0.01 88 1009.9
20260502222703 58 143 0.0 1.7 0.00 0.01 0.01 87 1010.0
20260502222015 58 143 0.0 1.7 0.00 0.01 0.01 87 1009.9
20260502220215 58 142 0.0 1.7 0.00 0.01 0.01 87 1010.2